User: anonymous   Login
Location: Unspecified
(0.0000°N, 0.0000°E)
Time: 10:59:26
(UTC+02:00)
Language:

Cosmos 2263 Rocket - Orbit

View from above orbital plane
View from above orbital plane
View from above satellite
View from above satellite

Ground track
Ground track

The orbit data is extracted from the following two-line orbital elements,

1 22803U 93059B   15117.19866821  .00000249  00000-0  14813-3 0  9992
2 22803 070.9886 097.1938 0015885 142.6782 217.5448 14.16709181117524
Epoch (UTC): 27 April 2015 04:46:04
Eccentricity: 0.0015885
inclination: 70.9886°
perigee height: 825 km
apogee height: 848 km
right ascension of ascending node: 97.1938°
argument of perigee: 142.6782°
revolutions per day: 14.16709181
mean anomaly at epoch: 217.5448°
orbit number at epoch: 11752

The dashed part of the orbit path shows where the satellite is in the earth's shadow,  

DLR